Tracking 35331 objects as of 13-Sep-2026
HD Live streaming from Space Station
objects crossing your sky now

DMSP 5D-2 F13 DEB

Track DMSP 5D-2 F13 DEB now!
10-day predictions


NORAD ID: 40516
Int'l Code: 1995-015DC
Launch date: March 24, 1995
Source: United States (US)
Launch site: AIR FORCE WESTERN TEST RANGE (AFWTR)

Note: This is SATELLITE DEBRIS
Your satellite tracking list
Your tracking list is empty




NASA's NSSDC Master Catalog

Two Line Element Set (TLE):
1 40516U 95015DC  26255.05276593  .00002560  00000-0  86069-3 0  9998
2 40516  98.7804 293.7412 0021860 223.4122 136.5344 14.37904549594959
Source of the keplerian elements: AFSPC